| time (UTC) | temp F | wind direction | speed MPH | gust MPH | rain 1hr in | rain 24hr in | rain mn in | humidity % | barometer mb |
| 20260503191036 | 68 | 127 | 1.0 | 3.0 | 0.00 | 0.00 | 0.00 | 52 | 1020.9 |
| 20260503190533 | 69 | 106 | 1.0 | 2.0 | 0.00 | 0.00 | 0.00 | 53 | 1020.8 |
| 20260503190030 | 68 | 288 | 2.0 | 6.0 | 0.00 | 0.00 | 0.00 | 54 | 1021.0 |
| 20260503185527 | 67 | 104 | 1.0 | 3.0 | 0.00 | 0.00 | 0.00 | 53 | 1021.0 |
| 20260503185026 | 68 | 267 | 0.0 | 2.0 | 0.00 | 0.00 | 0.00 | 53 | 1021.0 |
| 20260503184523 | 68 | 205 | 1.0 | 3.0 | 0.00 | 0.00 | 0.00 | 50 | 1021.0 |
| 20260503184020 | 68 | 294 | 1.0 | 3.0 | 0.00 | 0.00 | 0.00 | 54 | 1020.9 |
| 20260503183516 | 69 | 225 | 3.0 | 4.0 | 0.00 | 0.00 | 0.00 | 51 | 1021.0 |
| 20260503183013 | 69 | 275 | 0.0 | 3.0 | 0.00 | 0.00 | 0.00 | 51 | 1021.2 |
| 20260503182512 | 69 | 318 | 1.0 | 2.0 | 0.00 | 0.00 | 0.00 | 54 | 1021.3 |
| 20260503182009 | 68 | 279 | 2.0 | 3.0 | 0.00 | 0.00 | 0.00 | 53 | 1021.3 |
| 20260503181506 | 69 | 250 | 2.0 | 6.0 | 0.00 | 0.00 | 0.00 | 52 | 1021.2 |
| 20260503181002 | 69 | 296 | 1.0 | 2.0 | 0.00 | 0.00 | 0.00 | 53 | 1021.3 |
| 20260503180500 | 68 | 242 | 0.0 | 3.0 | 0.00 | 0.00 | 0.00 | 56 | 1021.3 |
| 20260503175957 | 66 | 304 | 1.0 | 2.0 | 0.00 | 0.00 | 0.00 | 55 | 1021.4 |
| 20260503175455 | 67 | 255 | 0.0 | 4.0 | 0.00 | 0.00 | 0.00 | 55 | 1021.4 |
| 20260503174950 | 66 | 309 | 2.0 | 4.0 | 0.00 | 0.00 | 0.00 | 55 | 1021.5 |
| 20260503174449 | 67 | 74 | 1.0 | 2.0 | 0.00 | 0.00 | 0.00 | 54 | 1021.5 |
| 20260503173944 | 66 | 311 | 2.0 | 3.0 | 0.00 | 0.00 | 0.00 | 54 | 1021.4 |
| 20260503173440 | 66 | 245 | 1.0 | 3.0 | 0.00 | 0.00 | 0.00 | 56 | 1021.3 |
| 20260503172937 | 66 | 181 | 1.0 | 2.0 | 0.00 | 0.00 | 0.00 | 55 | 1021.3 |
| 20260503172434 | 67 | 276 | 0.0 | 1.0 | 0.00 | 0.00 | 0.00 | 56 | 1021.4 |
| 20260503171930 | 68 | 195 | 0.0 | 1.0 | 0.00 | 0.00 | 0.00 | 52 | 1021.6 |
| 20260503171427 | 68 | 255 | 0.0 | 3.0 | 0.00 | 0.00 | 0.00 | 53 | 1021.5 |
| 20260503170925 | 68 | 293 | 2.0 | 3.0 | 0.00 | 0.00 | 0.00 | 53 | 1021.5 |
| 20260503170421 | 67 | 252 | 1.0 | 2.0 | 0.00 | 0.00 | 0.00 | 55 | 1021.6 |
| 20260503150813 | 66 | 260 | 0.0 | 2.0 | 0.00 | 0.00 | 0.00 | 54 | 1022.0 |
| 20260503150309 | 65 | 257 | 2.0 | 4.0 | 0.00 | 0.00 | 0.00 | 55 | 1022.0 |
| 20260503140234 | 61 | 234 | 2.0 | 4.0 | 0.00 | 0.00 | 0.00 | 69 | 1021.6 |
| 20260503131203 | 57 | 142 | 0.0 | 1.0 | 0.00 | 0.00 | 0.00 | 88 | 1021.5 |
| 20260503130701 | 57 | 271 | 0.0 | 1.0 | 0.00 | 0.00 | 0.00 | 90 | 1021.6 |
| 20260503130158 | 56 | 185 | 0.0 | 3.0 | 0.00 | 0.00 | 0.00 | 91 | 1021.6 |
| 20260503120123 | 52 | 190 | 0.0 | 0.0 | 0.00 | 0.00 | 0.00 | 99 | 1021.1 |
| 20260503110551 | 49 | 195 | 0.0 | 0.0 | 0.00 | 0.00 | 0.00 | 99 | 1020.3 |
| 20260503090438 | 49 | 199 | 0.0 | 0.0 | 0.00 | 0.00 | 0.00 | 99 | 1018.7 |
| 20260503081404 | 50 | 212 | 0.0 | 0.0 | 0.00 | 0.00 | 0.00 | 99 | 1018.3 |
| 20260503080901 | 49 | 211 | 0.0 | 0.0 | 0.00 | 0.00 | 0.00 | 99 | 1018.2 |
| 20260503080358 | 50 | 211 | 0.0 | 0.0 | 0.00 | 0.00 | 0.00 | 99 | 1018.5 |
| 20260503072829 | 50 | 214 | 0.0 | 0.0 | 0.00 | 0.00 | 0.00 | 99 | 1018.0 |
| 20260503072326 | 50 | 217 | 0.0 | 0.0 | 0.00 | 0.00 | 0.00 | 99 | 1018.0 |
| 20260503071822 | 51 | 217 | 0.0 | 0.0 | 0.00 | 0.00 | 0.00 | 99 | 1018.1 |
| 20260503071320 | 51 | 206 | 0.0 | 0.0 | 0.00 | 0.00 | 0.00 | 99 | 1018.0 |
| 20260503070816 | 51 | 217 | 0.0 | 0.0 | 0.00 | 0.00 | 0.00 | 99 | 1018.0 |
| 20260503070314 | 51 | 225 | 0.0 | 0.0 | 0.00 | 0.00 | 0.00 | 99 | 1017.9 |
| 20260503060232 | 52 | 149 | 0.0 | 0.0 | 0.00 | 0.00 | 0.00 | 99 | 1017.9 |
| 20260503054719 | 52 | 175 | 0.0 | 0.0 | 0.00 | 0.00 | 0.00 | 99 | 1017.7 |
| 20260503054216 | 52 | 209 | 0.0 | 0.0 | 0.00 | 0.00 | 0.00 | 99 | 1017.8 |
| 20260503053714 | 52 | 219 | 0.0 | 0.0 | 0.00 | 0.00 | 0.00 | 99 | 1017.9 |
| 20260503053213 | 52 | 212 | 0.0 | 0.0 | 0.00 | 0.00 | 0.00 | 99 | 1017.9 |
| 20260503052708 | 52 | 213 | 0.0 | 0.0 | 0.00 | 0.00 | 0.00 | 99 | 1017.7 |
| 20260503052205 | 52 | 161 | 0.0 | 1.0 | 0.00 | 0.00 | 0.00 | 99 | 1017.8 |
| 20260503051700 | 52 | 183 | 0.0 | 1.0 | 0.00 | 0.00 | 0.00 | 99 | 1017.6 |
| 20260503051159 | 52 | 242 | 1.0 | 3.0 | 0.00 | 0.00 | 0.00 | 99 | 1017.5 |
| 20260503050655 | 52 | 168 | 0.0 | 1.0 | 0.00 | 0.00 | 0.00 | 99 | 1017.6 |
| 20260503050151 | 53 | 248 | 0.0 | 1.0 | 0.00 | 0.00 | 0.00 | 99 | 1017.5 |
| 20260503045649 | 53 | 201 | 0.0 | 0.0 | 0.00 | 0.00 | 0.00 | 99 | 1017.5 |
| 20260503045146 | 53 | 160 | 0.0 | 1.0 | 0.00 | 0.00 | 0.00 | 99 | 1017.5 |
| 20260503044642 | 53 | 145 | 0.0 | 0.0 | 0.00 | 0.00 | 0.00 | 99 | 1017.4 |
| 20260503044140 | 53 | 153 | 1.0 | 3.0 | 0.00 | 0.00 | 0.00 | 99 | 1017.2 |
| 20260503043637 | 53 | 144 | 0.0 | 2.0 | 0.00 | 0.00 | 0.00 | 99 | 1017.2 |
| 20260503043134 | 53 | 174 | 0.0 | 3.0 | 0.00 | 0.00 | 0.00 | 99 | 1017.0 |
| 20260503042630 | 53 | 194 | 0.0 | 2.0 | 0.00 | 0.00 | 0.00 | 99 | 1017.2 |
| 20260503042126 | 53 | 243 | 0.0 | 2.0 | 0.00 | 0.00 | 0.00 | 99 | 1017.2 |
| 20260503041623 | 53 | 264 | 1.0 | 1.0 | 0.00 | 0.00 | 0.00 | 99 | 1017.2 |
| 20260503041121 | 54 | 150 | 2.0 | 3.0 | 0.00 | 0.00 | 0.00 | 99 | 1017.2 |
| 20260503040618 | 54 | 148 | 0.0 | 1.0 | 0.00 | 0.00 | 0.00 | 99 | 1017.0 |
| 20260503040115 | 54 | 169 | 2.0 | 3.0 | 0.00 | 0.00 | 0.00 | 99 | 1016.8 |
| 20260503035612 | 54 | 189 | 0.0 | 3.0 | 0.00 | 1.43 | 1.43 | 99 | 1016.8 |
| 20260503035109 | 54 | 250 | 0.0 | 1.0 | 0.00 | 1.43 | 1.43 | 99 | 1016.9 |
| 20260503034607 | 54 | 242 | 0.0 | 0.0 | 0.00 | 1.43 | 1.43 | 99 | 1016.8 |
| 20260503034104 | 54 | 249 | 0.0 | 1.0 | 0.00 | 1.43 | 1.43 | 99 | 1016.8 |
| 20260503033600 | 54 | 200 | 0.0 | 0.0 | 0.00 | 1.43 | 1.43 | 99 | 1016.6 |
| 20260503033059 | 54 | 279 | 1.0 | 1.0 | 0.00 | 1.43 | 1.43 | 99 | 1016.5 |
| 20260503032557 | 54 | 143 | 0.0 | 1.0 | 0.00 | 1.43 | 1.43 | 99 | 1016.3 |
| 20260503032054 | 55 | 163 | 0.0 | 2.0 | 0.00 | 1.43 | 1.43 | 99 | 1016.4 |
| 20260503031552 | 55 | 253 | 0.0 | 2.0 | 0.00 | 1.43 | 1.43 | 99 | 1016.5 |
| 20260503031049 | 55 | 202 | 0.0 | 0.0 | 0.00 | 1.43 | 1.43 | 99 | 1016.4 |
| 20260503030545 | 55 | 178 | 0.0 | 0.0 | 0.00 | 1.43 | 1.43 | 99 | 1016.3 |
| 20260503030042 | 55 | 184 | 0.0 | 0.0 | 0.00 | 1.43 | 1.43 | 99 | 1016.1 |
| 20260503025539 | 55 | 163 | 0.0 | 1.0 | 0.00 | 1.43 | 1.43 | 99 | 1016.0 |
| 20260503025037 | 55 | 224 | 0.0 | 0.0 | 0.00 | 1.43 | 1.43 | 99 | 1015.9 |
| 20260503024532 | 55 | 163 | 2.0 | 2.0 | 0.00 | 1.43 | 1.43 | 99 | 1016.0 |
| 20260503024030 | 55 | 212 | 0.0 | 2.0 | 0.00 | 1.43 | 1.43 | 99 | 1016.0 |
| 20260503023526 | 55 | 160 | 0.0 | 2.0 | 0.00 | 1.43 | 1.43 | 99 | 1015.9 |
| 20260503023024 | 55 | 175 | 0.0 | 1.0 | 0.00 | 1.43 | 1.43 | 99 | 1015.7 |
| 20260503022520 | 55 | 168 | 0.0 | 0.0 | 0.00 | 1.43 | 1.43 | 99 | 1015.6 |
| 20260503022015 | 55 | 183 | 0.0 | 0.0 | 0.00 | 1.43 | 1.43 | 99 | 1015.5 |
| 20260503021512 | 55 | 262 | 0.0 | 1.0 | 0.00 | 1.43 | 1.43 | 99 | 1015.4 |
| 20260503021009 | 55 | 178 | 0.0 | 0.0 | 0.00 | 1.43 | 1.43 | 99 | 1015.3 |
| 20260503020506 | 55 | 176 | 0.0 | 2.0 | 0.00 | 1.43 | 1.43 | 99 | 1015.4 |
| 20260503020002 | 55 | 271 | 0.0 | 1.0 | 0.00 | 1.43 | 1.43 | 99 | 1015.4 |
| 20260503015459 | 55 | 213 | 0.0 | 0.0 | 0.00 | 1.43 | 1.43 | 99 | 1015.3 |
| 20260503014956 | 55 | 181 | 0.0 | 0.0 | 0.00 | 1.43 | 1.43 | 99 | 1015.0 |
| 20260503014453 | 55 | 266 | 1.0 | 3.0 | 0.00 | 1.43 | 1.43 | 99 | 1015.0 |
| 20260503013951 | 55 | 229 | 1.0 | 2.0 | 0.00 | 1.43 | 1.43 | 99 | 1015.2 |
| 20260503013448 | 55 | 291 | 0.0 | 1.0 | 0.00 | 1.43 | 1.43 | 99 | 1014.8 |
| 20260503012945 | 55 | 271 | 0.0 | 1.0 | 0.00 | 1.43 | 1.43 | 99 | 1015.1 |
| 20260503012443 | 55 | 222 | 2.0 | 3.0 | 0.00 | 1.43 | 1.43 | 99 | 1015.0 |
| 20260503011938 | 55 | 254 | 1.0 | 3.0 | 0.00 | 1.43 | 1.43 | 99 | 1015.2 |
| 20260503011435 | 55 | 152 | 2.0 | 3.0 | 0.00 | 1.43 | 1.43 | 99 | 1015.2 |
| 20260503010933 | 55 | 258 | 1.0 | 1.0 | 0.00 | 1.43 | 1.43 | 99 | 1015.1 |
| 20260503010429 | 55 | 186 | 1.0 | 2.0 | 0.00 | 1.43 | 1.43 | 99 | 1014.9 |
| 20260503005927 | 55 | 191 | 0.0 | 2.0 | 0.00 | 1.43 | 1.43 | 99 | 1014.9 |
| 20260503005424 | 55 | 199 | 0.0 | 4.0 | 0.00 | 1.43 | 1.43 | 99 | 1014.9 |
| 20260503004921 | 55 | 170 | 0.0 | 4.0 | 0.00 | 1.43 | 1.43 | 99 | 1014.9 |
| 20260503004418 | 55 | 162 | 0.0 | 2.0 | 0.00 | 1.43 | 1.43 | 99 | 1014.7 |
| 20260503003915 | 55 | 101 | 1.0 | 2.0 | 0.00 | 1.43 | 1.43 | 99 | 1014.4 |
| 20260503003411 | 55 | 232 | 1.0 | 2.0 | 0.00 | 1.43 | 1.43 | 99 | 1014.3 |
| 20260503002909 | 55 | 146 | 0.0 | 2.0 | 0.00 | 1.43 | 1.43 | 99 | 1014.3 |
| 20260503002406 | 55 | 237 | 1.0 | 1.0 | 0.00 | 1.43 | 1.43 | 99 | 1014.3 |
| 20260503001902 | 55 | 183 | 0.0 | 0.0 | 0.00 | 1.43 | 1.43 | 99 | 1014.2 |
| 20260503001358 | 55 | 250 | 1.0 | 1.0 | 0.00 | 1.43 | 1.43 | 99 | 1014.1 |
| 20260503000856 | 55 | 168 | 0.0 | 2.0 | 0.00 | 1.43 | 1.43 | 99 | 1014.3 |
| 20260503000353 | 55 | 157 | 0.0 | 0.0 | 0.00 | 1.43 | 1.43 | 99 | 1014.4 |
| 20260502235850 | 56 | 318 | 0.0 | 3.0 | 0.00 | 1.43 | 1.43 | 99 | 1014.1 |
| 20260502235347 | 56 | 201 | 0.0 | 1.0 | 0.00 | 1.43 | 1.43 | 99 | 1014.0 |
| 20260502234844 | 56 | 137 | 1.0 | 2.0 | 0.00 | 1.43 | 1.43 | 99 | 1014.1 |
| 20260502234341 | 56 | 191 | 0.0 | 0.0 | 0.00 | 1.43 | 1.43 | 99 | 1014.0 |
| 20260502233838 | 56 | 145 | 0.0 | 1.0 | 0.05 | 1.43 | 1.43 | 99 | 1013.9 |
| 20260502233334 | 56 | 137 | 2.0 | 2.0 | 0.05 | 1.43 | 1.43 | 99 | 1013.8 |
| 20260502232831 | 56 | 156 | 0.0 | 3.0 | 0.00 | 1.42 | 1.42 | 99 | 1013.6 |
| 20260502232327 | 56 | 161 | 0.0 | 1.0 | 0.00 | 1.42 | 1.42 | 99 | 1013.4 |
| 20260502231824 | 56 | 218 | 0.0 | 1.0 | 0.00 | 1.42 | 1.42 | 99 | 1013.4 |
| 20260502231322 | 56 | 170 | 0.0 | 2.0 | 0.00 | 1.42 | 1.42 | 99 | 1013.3 |
| 20260502230820 | 56 | 149 | 0.0 | 3.0 | 0.00 | 1.42 | 1.42 | 99 | 1013.3 |
| 20260502230318 | 56 | 197 | 1.0 | 2.0 | 0.00 | 1.42 | 1.42 | 99 | 1013.3 |
| 20260502225814 | 56 | 170 | 0.0 | 1.0 | 0.00 | 1.42 | 1.42 | 99 | 1013.2 |
| 20260502225311 | 56 | 171 | 0.0 | 3.0 | 0.00 | 1.42 | 1.42 | 99 | 1013.3 |
| 20260502224807 | 56 | 152 | 2.0 | 4.0 | 0.00 | 1.42 | 1.42 | 99 | 1013.2 |
| 20260502224304 | 56 | 173 | 0.0 | 2.0 | 0.00 | 1.42 | 1.42 | 99 | 1013.2 |
| 20260502223801 | 56 | 198 | 1.0 | 8.0 | 0.00 | 1.42 | 1.42 | 99 | 1013.5 |
| 20260502223300 | 56 | 197 | 0.0 | 1.0 | 0.00 | 1.42 | 1.42 | 99 | 1013.3 |
| 20260502222757 | 56 | 209 | 0.0 | 1.0 | 0.00 | 1.42 | 1.42 | 99 | 1013.2 |
| 20260502222254 | 56 | 161 | 2.0 | 3.0 | 0.00 | 1.42 | 1.42 | 99 | 1013.3 |
| 20260502221749 | 56 | 174 | 0.0 | 3.0 | 0.00 | 1.42 | 1.42 | 99 | 1013.0 |
| 20260502221246 | 57 | 176 | 1.0 | 2.0 | 0.00 | 1.42 | 1.42 | 99 | 1013.0 |
| 20260502220743 | 57 | 202 | 2.0 | 4.0 | 0.00 | 1.42 | 1.42 | 99 | 1013.2 |
| 20260502220238 | 57 | 178 | 0.0 | 2.0 | 0.00 | 1.42 | 1.42 | 99 | 1013.0 |
| 20260502215736 | 57 | 213 | 2.0 | 3.0 | 0.00 | 1.42 | 1.42 | 99 | 1013.0 |
| 20260502215233 | 57 | 184 | 2.0 | 3.0 | 0.00 | 1.42 | 1.42 | 99 | 1012.7 |
| 20260502214730 | 57 | 162 | 1.0 | 2.0 | 0.00 | 1.42 | 1.42 | 99 | 1012.7 |
| 20260502214227 | 57 | 201 | 0.0 | 6.0 | 0.00 | 1.42 | 1.42 | 99 | 1012.4 |
| 20260502213724 | 57 | 149 | 0.0 | 2.0 | 0.07 | 1.42 | 1.42 | 99 | 1012.6 |
| 20260502213222 | 57 | 184 | 1.0 | 4.0 | 0.07 | 1.42 | 1.42 | 99 | 1012.5 |
| 20260502212720 | 57 | 166 | 1.0 | 3.0 | 0.00 | 1.41 | 1.41 | 99 | 1012.5 |
| 20260502212218 | 57 | 162 | 0.0 | 6.0 | 0.00 | 1.41 | 1.41 | 99 | 1012.3 |
| 20260502211714 | 57 | 309 | 1.0 | 3.0 | 0.00 | 1.41 | 1.41 | 99 | 1012.0 |
| 20260502211211 | 57 | 199 | 1.0 | 3.0 | 0.00 | 1.41 | 1.41 | 99 | 1012.1 |
| 20260502210708 | 57 | 160 | 2.0 | 2.0 | 0.00 | 1.41 | 1.41 | 99 | 1012.1 |
| 20260502210205 | 57 | 132 | 1.0 | 3.0 | 0.00 | 1.41 | 1.41 | 99 | 1012.0 |
| 20260502205702 | 57 | 282 | 2.0 | 8.0 | 0.00 | 1.41 | 1.41 | 99 | 1012.0 |
| 20260502205158 | 57 | 275 | 1.0 | 3.0 | 0.00 | 1.41 | 1.41 | 99 | 1012.0 |
| 20260502204655 | 57 | 167 | 5.0 | 7.0 | 0.00 | 1.41 | 1.41 | 99 | 1011.9 |
| 20260502204153 | 57 | 165 | 0.0 | 3.0 | 0.00 | 1.41 | 1.41 | 99 | 1012.1 |
| 20260502203650 | 57 | 143 | 2.0 | 6.0 | 0.00 | 1.41 | 1.41 | 99 | 1011.8 |
| 20260502203149 | 57 | 258 | 1.0 | 6.0 | 0.00 | 1.41 | 1.41 | 99 | 1011.9 |
| 20260502202642 | 58 | 293 | 2.0 | 4.0 | 0.00 | 1.41 | 1.41 | 99 | 1011.6 |
| 20260502202141 | 58 | 186 | 2.0 | 2.0 | 0.00 | 1.41 | 1.41 | 99 | 1011.7 |
| 20260502201637 | 58 | 189 | 0.0 | 1.0 | 0.00 | 1.41 | 1.41 | 99 | 1011.6 |
| 20260502201129 | 58 | 161 | 1.0 | 7.0 | 0.00 | 1.41 | 1.41 | 99 | 1011.7 |
| 20260502200624 | 58 | 166 | 4.0 | 7.0 | 0.00 | 1.41 | 1.41 | 99 | 1011.9 |
| 20260502200122 | 58 | 207 | 2.0 | 3.0 | 0.05 | 1.41 | 1.41 | 99 | 1011.8 |
| 20260502195620 | 58 | 211 | 1.0 | 6.0 | 0.05 | 1.41 | 1.41 | 99 | 1011.7 |
| 20260502195114 | 59 | 190 | 3.0 | 4.0 | 0.07 | 1.40 | 1.40 | 99 | 1011.7 |
| 20260502194612 | 59 | 247 | 0.0 | 3.0 | 0.07 | 1.40 | 1.40 | 99 | 1011.5 |
| 20260502194108 | 59 | 223 | 1.0 | 2.0 | 0.05 | 1.39 | 1.39 | 99 | 1011.7 |
| 20260502193606 | 58 | 247 | 2.0 | 3.0 | 0.12 | 1.39 | 1.39 | 99 | 1011.9 |
| 20260502193102 | 59 | 228 | 2.0 | 6.0 | 0.12 | 1.38 | 1.38 | 99 | 1011.8 |
| 20260502192557 | 59 | 201 | 5.0 | 8.0 | 0.05 | 1.37 | 1.37 | 99 | 1012.0 |
| 20260502192055 | 60 | 158 | 2.0 | 4.0 | 0.07 | 1.36 | 1.36 | 99 | 1011.7 |
| 20260502191552 | 60 | 242 | 1.0 | 1.0 | 0.14 | 1.36 | 1.36 | 99 | 1011.9 |